(169987) = 2002 TK219 = 2004 BP61

Discovered at Socorro on 2002-10-05 by LINEAR.

Orbit

Orbit type: Main Belt

Note: WebGL enabled browser required.

epoch2023-02-25.0
epoch JD2460000.5
perihelion date2020-11-09.94157
perihelion JD2459163.44157
argument of perihelion (°)90.39963
ascending node (°)286.06255
inclination (°)5.37982
eccentricity0.0407630
perihelion distance (AU)2.6232566
Tisserand w.r.t. Jupiter3.3
ΔV w.r.t. Earth (km/sec)10.2
semimajor axis (AU)2.7347325
mean anomaly (°)182.42626
mean daily motion (°/day)0.21793730
aphelion distance (AU)2.846
period (years)4.52
P-vector [x]0.95477414
P-vector [y]0.22158622
P-vector [z]0.19825712
Q-vector [x]-0.28335278
Q-vector [y]0.88013966
Q-vector [z]0.38087449
absolute magnitude15.89
phase slope0.15
uncertainty0
referenceMPO 745323
observations used586
oppositions16
arc length (days)10352
first opposition used1995
last opposition used2023
residual rms (arc-secs)0.70
perturbers coarse indicatorM-v
perturbers precise indicator003Ek
first observation date used1995-02-03.0
last observation date used2023-06-08.0
computer nameMPCLINUX
JD of orbit computation2456847.633063
perihelion JD uncertainty (days)2.5091E-04
argument of perihelion uncertainty (°)7.1116E-05
ascending node uncertainty (°)4.6021E-05
inclination uncertainty (°)4.5011E-06
eccentricity uncertainty 4.5653E-08
perihelion distance uncertainty (AU)1.3006E-07
Minimum Orbit Intersection Distances (in AU)
for orbit epoch: 2460000.5, reference: E2023-L38
Mercury2.26106
Venus1.90843
Earth1.62895
Mars1.12225
Jupiter2.36487
Saturn6.3507
Uranus15.6254
Neptune27.2481

Observations

597 total observations over interval: 1995 02 03.32139 – 2023 06 08.319402
These data are available for download (format description).

Date (UT) J2000 RA J2000 Dec Magn Location Ref
1995 02 03.32139 08 34 17.99 +15 22 29.1   691 – Steward Observatory, Kitt Peak-Spacewatch MPS 178369
1995 02 03.34534 08 34 16.60 +15 22 31.1 19.7 V 691 – Steward Observatory, Kitt Peak-Spacewatch MPS 178369
1995 02 03.36932 08 34 15.22 +15 22 34.2   691 – Steward Observatory, Kitt Peak-Spacewatch MPS 178369
2002 09 28.48676 00 57 43.91 +15 27 30.2 20.8   608 – Haleakala-AMOS MPS 112828
2002 09 28.49713 00 57 43.40 +15 27 27.8 20.1   608 – Haleakala-AMOS MPS 112828
2002 09 28.50791 00 57 42.87 +15 27 25.3 20.0   608 – Haleakala-AMOS MPS 112828
2002 10 04.26015 00 52 54.72 +15 02 31.8 19.5   704 – Lincoln Laboratory ETS, New Mexico MPS 112828
2002 10 04.27592 00 52 53.75 +15 02 27.5 19.8   704 – Lincoln Laboratory ETS, New Mexico MPS 112828
2002 10 04.30723 00 52 52.06 +15 02 17.4 20.0   704 – Lincoln Laboratory ETS, New Mexico MPS 112828
2002 10 04.32291 00 52 51.15 +15 02 13.3 20.4   704 – Lincoln Laboratory ETS, New Mexico MPS 112828
2002 10 05.25726 00 52 03.56 +14 57 43.4 19.4   704 – Lincoln Laboratory ETS, New Mexico MPS 64180
2002 10 05.27288 00 52 02.68 +14 57 38.9 19.7   704 – Lincoln Laboratory ETS, New Mexico MPS 64180
2002 10 05.28841 00 52 01.89 +14 57 34.3 19.2   704 – Lincoln Laboratory ETS, New Mexico MPS 64180
2002 10 05.30402 00 52 01.05 +14 57 29.0 19.1   704 – Lincoln Laboratory ETS, New Mexico MPS 64180
2002 10 05.31948 00 52 00.23 +14 57 24.9 19.2   704 – Lincoln Laboratory ETS, New Mexico MPS 64180
2002 10 09.25624 00 48 38.33 +14 37 21.2 19.6   704 – Lincoln Laboratory ETS, New Mexico MPS 64180
2002 10 09.27185 00 48 37.55 +14 37 16.4 19.8   704 – Lincoln Laboratory ETS, New Mexico MPS 64180
2002 10 09.28741 00 48 36.77 +14 37 11.3 19.4   704 – Lincoln Laboratory ETS, New Mexico MPS 64180
2002 10 09.30296 00 48 35.92 +14 37 06.4 19.6   704 – Lincoln Laboratory ETS, New Mexico MPS 64180
2002 10 09.31875 00 48 35.03 +14 37 01.3 19.3   704 – Lincoln Laboratory ETS, New Mexico MPS 64180
2002 10 12.25241 00 46 05.91 +14 21 03.8 18.9   704 – Lincoln Laboratory ETS, New Mexico MPS 112828
2002 10 12.26886 00 46 05.04 +14 20 57.5 19.9   704 – Lincoln Laboratory ETS, New Mexico MPS 112828
2002 10 12.28548 00 46 04.25 +14 20 51.7 19.4   704 – Lincoln Laboratory ETS, New Mexico MPS 112828
2002 10 12.30218 00 46 03.33 +14 20 47.2 19.4   704 – Lincoln Laboratory ETS, New Mexico MPS 112828
2002 10 12.31868 00 46 02.47 +14 20 41.9 19.3   704 – Lincoln Laboratory ETS, New Mexico MPS 112828
2002 11 22.07930 00 25 44.98 +10 50 55.0 19.9   644 – Palomar Mountain/NEAT MPS 112828
2002 11 22.10096 00 25 44.94 +10 50 51.6 20.5   644 – Palomar Mountain/NEAT MPS 112828
2002 11 22.12189 00 25 44.88 +10 50 47.4 19.9   644 – Palomar Mountain/NEAT MPS 112828
2003 12 17.50690 08 49 53.09 +16 29 53.4 20.6 V 291 – LPL/Spacewatch II MPS 112828
2003 12 17.52298 08 49 52.74 +16 29 52.7 21.2 V 291 – LPL/Spacewatch II MPS 112828
2003 12 17.53843 08 49 52.42 +16 29 52.1 21.4 V 291 – LPL/Spacewatch II MPS 112828
2003 12 18.49051 08 49 32.88 +16 29 10.8 19.9   644 – Palomar Mountain/NEAT MPS 112828
2003 12 18.51083 08 49 32.41 +16 29 09.5 20.0   644 – Palomar Mountain/NEAT MPS 112828
2003 12 18.53274 08 49 31.87 +16 29 09.2 20.1   644 – Palomar Mountain/NEAT MPS 112828
2004 01 16.30557 08 29 33.36 +16 43 18.7 19.5   644 – Palomar Mountain/NEAT MPS 112828
2004 01 16.32698 08 29 32.10 +16 43 20.2 19.2   644 – Palomar Mountain/NEAT MPS 112828
2004 01 16.35469 08 29 30.49 +16 43 22.7 19.3   644 – Palomar Mountain/NEAT MPS 112828
2004 01 22.24184 08 23 50.97 +16 51 45.5 19.5   644 – Palomar Mountain/NEAT MPS 97938
2004 01 22.26299 08 23 49.71 +16 51 47.4 19.6   644 – Palomar Mountain/NEAT MPS 97938
2004 01 22.32185 08 23 46.16 +16 51 52.7 19.8   644 – Palomar Mountain/NEAT MPS 97938
2004 01 22.61549 08 23 28.75 +16 52 19.7 20.9   608 – Haleakala-AMOS MPS 97938
2004 01 22.62628 08 23 28.10 +16 52 20.9 20.8   608 – Haleakala-AMOS MPS 97938
2004 01 22.63714 08 23 27.46 +16 52 22.0 21.0   608 – Haleakala-AMOS MPS 97938
2004 01 27.29804 08 18 55.16 +16 59 21.2 20.0 V 691 – Steward Observatory, Kitt Peak-Spacewatch MPS 97938
2004 01 27.32701 08 18 53.42 +16 59 23.7 20.0 V 691 – Steward Observatory, Kitt Peak-Spacewatch MPS 97938
2004 01 27.35515 08 18 51.74 +16 59 26.1 19.8 V 691 – Steward Observatory, Kitt Peak-Spacewatch MPS 97938
2006 05 26.44363 21 35 05.35 -12 43 44.0 20.7 V G96 – Mt. Lemmon Survey MPS 172803
2006 05 26.44870 21 35 05.49 -12 43 42.4 20.8 V G96 – Mt. Lemmon Survey MPS 172803
2006 05 26.45378 21 35 05.67 -12 43 41.3 20.9 V G96 – Mt. Lemmon Survey MPS 172803
2006 05 26.45883 21 35 05.85 -12 43 39.4 20.9 V G96 – Mt. Lemmon Survey MPS 172803
2006 07 20.91020 21 31 24.41 -10 43 04.9 20.1 V A50 – Andrushivka Astronomical Observatory MPS 182863
2006 07 20.93703 21 31 23.23 -10 43 06.4 19.3 V A50 – Andrushivka Astronomical Observatory MPS 182863
2006 07 21.92916 21 30 41.05 -10 44 00.1 18.7 V A50 – Andrushivka Astronomical Observatory MPS 192031
2006 07 21.94586 21 30 40.34 -10 44 01.5 20.5 V A50 – Andrushivka Astronomical Observatory MPS 182440
2007 11 07.38841 04 52 46.93 +28 02 36.9 20.1   704 – Lincoln Laboratory ETS, New Mexico MPS 224716
2007 11 07.40074 04 52 46.27 +28 02 36.6 20.2   704 – Lincoln Laboratory ETS, New Mexico MPS 224716
2007 11 07.42559 04 52 45.24 +28 02 34.3 20.2   704 – Lincoln Laboratory ETS, New Mexico MPS 224716
2007 11 08.32774 04 52 07.99 +28 01 22.0   691 – Steward Observatory, Kitt Peak-Spacewatch MPS 224716
2007 11 08.34546 04 52 07.22 +28 01 20.6   691 – Steward Observatory, Kitt Peak-Spacewatch MPS 224716
2007 11 08.36318 04 52 06.42 +28 01 19.1   691 – Steward Observatory, Kitt Peak-Spacewatch MPS 224716
2007 11 18.28634 04 44 01.69 +27 42 25.0 19.4   704 – Lincoln Laboratory ETS, New Mexico MPS 228225
2007 11 18.29889 04 44 01.01 +27 42 23.1 20.2   704 – Lincoln Laboratory ETS, New Mexico MPS 228225
2007 11 18.31146 04 44 00.28 +27 42 22.3 20.1   704 – Lincoln Laboratory ETS, New Mexico MPS 228225
2007 11 18.32401 04 43 59.55 +27 42 19.4 19.6   704 – Lincoln Laboratory ETS, New Mexico MPS 228225
2007 11 18.33657 04 43 58.84 +27 42 17.7 20.0   704 – Lincoln Laboratory ETS, New Mexico MPS 228225
2007 11 19.32290 04 43 04.62 +27 39 49.9 19.0 V G96 – Mt. Lemmon Survey MPS 228225
2007 11 19.32854 04 43 04.29 +27 39 49.1 19.1 V G96 – Mt. Lemmon Survey MPS 228225
2007 11 19.33420 04 43 03.97 +27 39 48.2 18.9 V G96 – Mt. Lemmon Survey MPS 228225
2007 11 19.33986 04 43 03.57 +27 39 47.9 18.3 V G96 – Mt. Lemmon Survey MPS 228225
2007 11 20.20667 04 42 15.41 +27 37 31.9 19.7   704 – Lincoln Laboratory ETS, New Mexico MPS 229657
2007 11 20.21942 04 42 14.69 +27 37 29.8 19.8   704 – Lincoln Laboratory ETS, New Mexico MPS 229657
2007 11 20.23295 04 42 13.94 +27 37 28.1 19.5   704 – Lincoln Laboratory ETS, New Mexico MPS 229657
2007 11 20.24562 04 42 13.20 +27 37 26.0 20.1   704 – Lincoln Laboratory ETS, New Mexico MPS 229657
2007 11 20.33365 04 42 08.06 +27 37 12.7 19.9 V 691 – Steward Observatory, Kitt Peak-Spacewatch MPS 229657
2007 11 20.35153 04 42 07.02 +27 37 09.7 19.5 V 691 – Steward Observatory, Kitt Peak-Spacewatch MPS 229657
2007 11 20.37216 04 42 05.82 +27 37 06.5 19.6 V 691 – Steward Observatory, Kitt Peak-Spacewatch MPS 229657
2007 12 13.20313 04 19 39.46 +26 13 27.9 19.5   704 – Lincoln Laboratory ETS, New Mexico MPS 231269
2007 12 13.21602 04 19 38.67 +26 13 24.2 20.3   704 – Lincoln Laboratory ETS, New Mexico MPS 231269
2007 12 13.22892 04 19 37.98 +26 13 20.7 19.7   704 – Lincoln Laboratory ETS, New Mexico MPS 231269
2007 12 13.24182 04 19 37.21 +26 13 17.5 19.8   704 – Lincoln Laboratory ETS, New Mexico MPS 231269
2007 12 13.25473 04 19 36.50 +26 13 14.0 19.7   704 – Lincoln Laboratory ETS, New Mexico MPS 231269
2007 12 15.20252 04 17 51.43 +26 04 40.2 19.6   704 – Lincoln Laboratory ETS, New Mexico MPS 231685
2007 12 15.21533 04 17 50.82 +26 04 38.3 19.8   704 – Lincoln Laboratory ETS, New Mexico MPS 231685
2007 12 15.22813 04 17 50.12 +26 04 34.2 20.1   704 – Lincoln Laboratory ETS, New Mexico MPS 231685
2007 12 15.24091 04 17 49.41 +26 04 30.3 20.4   704 – Lincoln Laboratory ETS, New Mexico MPS 231685
2007 12 15.25378 04 17 48.65 +26 04 26.3 20.2   704 – Lincoln Laboratory ETS, New Mexico MPS 231685
